Weather History for Atwater, CA

Change the Weather History Date:

Tuesday, October 29, 2013

  Actual Average (KMCE) Record (KMCE)
Temperature  
Mean Temperature 57 °F 59 °F  
Max Temperature 68 °F 73 °F 83 °F (2008)
Min Temperature 46 °F 46 °F 35 °F (2009)
Degree Days  
Heating Degree Days 8    
Month to date heating degree days  
Since 1 July heating degree days  
Cooling Degree Days 0    
Month to date cooling degree days  
Year to date cooling degree days  
Growing Degree Days 7 (Base 50)    
Moisture  
Dew Point 46 °F    
Average Humidity 76    
Maximum Humidity 100    
Minimum Humidity 40    
Precipitation  
Precipitation 0.00 in 0.06 in 0.64 in (2000)
Month to date precipitation 0.70  
Year to date precipitation 9.69  
Since 1 July precipitation 1.01  
Snow  
Snow 0.00 in - - ()
Month to date snowfall  
Since 1 July snowfall  
Since 1 September snowfall  
Snow Depth -    
Sea Level Pressure  
Sea Level Pressure 29.95 in    
Wind  
Wind Speed 5 mph (South)    
Max Wind Speed 8 mph    
Max Gust Speed -    
Visibility 10 miles    
Events      
T = Trace of Precipitation, MM = Missing Value Source: NWS Daily Summary

Daily Weather History Graph

Daily Weather History Graph

Search for Another Location

Airport:

Trip Planner

Search our weather history database for the weather conditions in past years. The results will help you decide how hot, cold, wet, or windy it might be!

Date:

Astronomy

Oct. 29, 2013 Rise Set
Actual Time 7:24 AM PDT 6:07 PM PDT
Civil Twilight 6:57 AM PDT 6:33 PM PDT
Nautical Twilight 6:26 AM PDT 7:04 PM PDT
Astronomical Twilight 5:56 AM PDT 7:35 PM PDT
Moon 2:25 AM PDT (10/29) 3:18 PM PDT (10/29)
Length of Visible Light 11h 36m
Length of Day
10h 42m
Waning Crescent, 24% of the Moon is Illuminated
Oct 29
Waning Crescent
Nov 3
New
Nov 9
First Quarter
Nov 17
Full
Nov 25
Last Quarter

Hourly Weather History & Observations

Time (PDT) Temp. Windchill Dew Point Humidity Pressure Visibility Wind Dir Wind Speed Gust Speed Precip Events Conditions
12:15 AM 50.0 °F - 46.4 °F 87% 29.89 in 10.0 mi SSE 5.8 mph - N/A   Scattered Clouds
12:35 AM 48.2 °F - 44.6 °F 87% 29.89 in 10.0 mi SSE 5.8 mph - N/A   Clear
12:55 AM 48.2 °F - 44.6 °F 87% 29.89 in 10.0 mi SE 4.6 mph - N/A   Clear
1:15 AM 48.2 °F - 44.6 °F 87% 29.89 in 10.0 mi SSE 5.8 mph - N/A   Clear
1:35 AM 48.2 °F - 46.4 °F 93% 29.90 in 10.0 mi South 3.5 mph - N/A   Clear
1:55 AM 48.2 °F - 46.4 °F 93% 29.90 in 10.0 mi SSE 5.8 mph - N/A   Clear
2:15 AM 48.2 °F - 46.4 °F 93% 29.90 in 10.0 mi SE 4.6 mph - N/A   Clear
3:15 AM 46.4 °F 45.2 °F 46.4 °F 100% 29.91 in 10.0 mi SSE 3.5 mph - N/A   Clear
6:45 AM 48.2 °F - 48.2 °F 100% 29.95 in 10.0 mi South 5.8 mph - N/A   Overcast
6:55 AM 48.2 °F - 48.2 °F 100% 29.95 in 10.0 mi SSW 5.8 mph - N/A   Overcast
7:45 AM 48.2 °F - 48.2 °F 100% 29.97 in 7.0 mi SSE 4.6 mph - N/A   Overcast
8:45 AM 51.8 °F - 51.8 °F 100% 29.98 in 10.0 mi SSW 4.6 mph - N/A   Mostly Cloudy
9:45 AM 53.6 °F - 50.0 °F 88% 30.00 in 10.0 mi Calm Calm - N/A   Mostly Cloudy
10:45 AM 57.2 °F - 48.2 °F 72% 30.00 in 10.0 mi SSW 6.9 mph - N/A   Mostly Cloudy
11:45 AM 62.6 °F - 46.4 °F 55% 29.99 in 10.0 mi Variable 4.6 mph - N/A   Scattered Clouds
12:45 PM 62.6 °F - 46.4 °F 55% 29.98 in 10.0 mi Variable 4.6 mph - N/A   Mostly Cloudy
1:45 PM 68.0 °F - 44.6 °F 43% 29.97 in 10.0 mi Variable 4.6 mph - N/A   Mostly Cloudy
2:45 PM 62.6 °F - 44.6 °F 52% 29.96 in 10.0 mi Variable 3.5 mph - N/A   Mostly Cloudy
3:45 PM 66.2 °F - 41.0 °F 40% 29.96 in 10.0 mi West 8.1 mph - N/A   Clear
4:45 PM 66.2 °F - 41.0 °F 40% 29.96 in 10.0 mi NW 6.9 mph - N/A   Clear
5:45 PM 62.6 °F - 41.0 °F 45% 29.96 in 10.0 mi NNW 6.9 mph - N/A   Clear
6:45 PM 57.2 °F - 42.8 °F 59% 29.98 in 10.0 mi NW 5.8 mph - N/A   Clear
7:45 PM 53.6 °F - 42.8 °F 67% 29.99 in 10.0 mi NW 5.8 mph - N/A   Clear
8:45 PM 50.0 °F - 44.6 °F 82% 30.00 in 10.0 mi NW 5.8 mph - N/A   Clear